Location: Chircca
(13.7944°S, 72.0608°W)
Time: 07:05:38
(UTC+00:00)

ADEOS Rocket - Pass Details

Date: 14 July 2020
Orbit: 859 x 1306 km, 98.7° (Epoch: 07 August)

Event Time Altitude Azimuth Distance (km) Brightness Sun altitude
Rises 10:07:37 0° 165° (SSE) 3,460 5.9 -15.7°
Reaches altitude 10° 10:09:57 10° 163° (SSE) 2,538 5.2 -15.1°
Maximum altitude 10:15:33 74° 77° (ENE) 952 3.1 -13.8°
Drops below altitude 10° 10:21:32 10° 353° (N) 2,714 5.5 -12.5°
Sets 10:24:06 0° 351° (N) 3,719 6.2 -11.9°
